When you browse on this site, cookies collect data to enhance your experience and personalize the content and advertising you see.
Visit our Privacy Policy to learn more. By continuing to use the site, you agree to this use of cookies and data.
  • In Schweiz
  • Länderverzeichnis
  • Für 7 Tage
  • Wassertemperatur
  • Satellitenkarten
  • Wetterkarte
  • Widgets
  • user-avatar
    Anmelden

    Stündliche Wetter Mayrhofen

    Heute, 23 März, Samstag

    Zeit Temperatur Niederschläge Wind Luftdruck Luftfeuchtigkeit
    00:00 +1°C° 0 mm 1 m/S 622 mmHg 66%
    01:00 +1°C° 0 mm 1 m/S 622 mmHg 61%
    02:00 +1°C° 0 mm 1 m/S 622 mmHg 62%
    03:00 0°C° 0 mm 1 m/S 621 mmHg 64%
    04:00 0°C° 0 mm 1 m/S 621 mmHg 65%
    05:00 0°C° 0 mm 1 m/S 621 mmHg 65%
    06:00 0°C° 0 mm 1 m/S 621 mmHg 65%
    07:00 0°C° 0 mm 1 m/S 621 mmHg 65%
    08:00 +3°C° 0 mm 1 m/S 622 mmHg 68%
    09:00 +5°C° 0 mm 1 m/S 623 mmHg 70%
    10:00 +7°C° 0 mm 0 m/S 623 mmHg 73%
    11:00 +8°C° 0 mm 0 m/S 623 mmHg 69%
    12:00 +10°C° 0 mm 1 m/S 624 mmHg 64%
    13:00 +10°C° 0 mm 1 m/S 624 mmHg 60%
    14:00 +10°C° 0 mm 1 m/S 623 mmHg 62%
    15:00 +10°C° 0 mm 1 m/S 623 mmHg 63%
    16:00 +9°C° 0 mm 1 m/S 623 mmHg 65%
    17:00 +7°C° 0 mm 1 m/S 622 mmHg 71%
    18:00 +5°C° 0 mm 1 m/S 621 mmHg 77%
    19:00 +3°C° 0 mm 1 m/S 620 mmHg 82%
    20:00 +2°C° 0 mm 1 m/S 621 mmHg 83%
    21:00 +2°C° 0 mm 1 m/S 621 mmHg 84%
    22:00 +1°C° 0 mm 1 m/S 621 mmHg 85%
    23:00 +1°C° 0 mm 1 m/S 621 mmHg 83%

    Morgen, 24 März, Sonntag

    Zeit Temperatur Niederschläge Wind Luftdruck Luftfeuchtigkeit
    00:00 +1°C° 0 mm 1 m/S 621 mmHg 81%
    01:00 +1°C° 0 mm 1 m/S 621 mmHg 80%
    02:00 +1°C° 0 mm 1 m/S 620 mmHg 78%
    03:00 -1°C° 0 mm 2 m/S 620 mmHg 76%
    04:00 -1°C° 0 mm 2 m/S 620 mmHg 73%
    05:00 -1°C° 0 mm 2 m/S 620 mmHg 71%
    06:00 -1°C° 0 mm 2 m/S 620 mmHg 68%
    07:00 -1°C° 0 mm 2 m/S 620 mmHg 66%
    08:00 +3°C° 0 mm 2 m/S 620 mmHg 62%
    09:00 +6°C° 0 mm 1 m/S 621 mmHg 58%
    10:00 +9°C° 0 mm 1 m/S 622 mmHg 54%
    11:00 +9°C° 0 mm 1 m/S 622 mmHg 52%
    12:00 +9°C° 0 mm 0 m/S 622 mmHg 50%
    13:00 +10°C° 0 mm 0 m/S 622 mmHg 48%
    14:00 +11°C° 0 mm 1 m/S 621 mmHg 51%
    15:00 +10°C° 0 mm 1 m/S 621 mmHg 54%
    16:00 +10°C° 0 mm 1 m/S 620 mmHg 58%
    17:00 +8°C° 0 mm 1 m/S 619 mmHg 67%
    18:00 +6°C° 0 mm 1 m/S 619 mmHg 77%
    19:00 +3°C° 0 mm 1 m/S 618 mmHg 87%
    20:00 +3°C° 0.1 mm 1 m/S 618 mmHg 89%
    21:00 +3°C° 0.1 mm 1 m/S 618 mmHg 91%
    22:00 +3°C° 0.1 mm 1 m/S 619 mmHg 94%
    23:00 +3°C° 0 mm 1 m/S 618 mmHg 94%

    übermorgen, 25 März, Montag

    Zeit Temperatur Niederschläge Wind Luftdruck Luftfeuchtigkeit
    00:00 +2°C° 0 mm 1 m/S 618 mmHg 94%
    01:00 +2°C° 0 mm 1 m/S 618 mmHg 94%
    02:00 +1°C° 0 mm 1 m/S 617 mmHg 94%
    03:00 +1°C° 0 mm 1 m/S 617 mmHg 93%
    04:00 +1°C° 0 mm 1 m/S 617 mmHg 93%
    05:00 +1°C° 0 mm 1 m/S 617 mmHg 92%
    06:00 +1°C° 0 mm 1 m/S 617 mmHg 92%
    07:00 -1°C° 0 mm 2 m/S 617 mmHg 92%
    08:00 +1°C° 0 mm 2 m/S 617 mmHg 87%
    09:00 +2°C° 0 mm 2 m/S 617 mmHg 83%
    10:00 +3°C° 0 mm 2 m/S 617 mmHg 79%
    11:00 +3°C° 0.1 mm 2 m/S 617 mmHg 78%
    12:00 +2°C° 0.1 mm 3 m/S 617 mmHg 76%
    13:00 +2°C° 0.1 mm 3 m/S 616 mmHg 75%
    14:00 +2°C° 0.2 mm 3 m/S 616 mmHg 78%
    15:00 +1°C° 0.2 mm 3 m/S 616 mmHg 80%
    16:00 -1°C° 0.2 mm 4 m/S 615 mmHg 83%
    17:00 -2°C° 0.4 mm 4 m/S 615 mmHg 86%
    18:00 -3°C° 0.4 mm 4 m/S 615 mmHg 89%
    19:00 -5°C° 0.4 mm 4 m/S 615 mmHg 92%
    20:00 -7°C° 0.5 mm 4 m/S 616 mmHg 91%
    21:00 -8°C° 0.5 mm 4 m/S 616 mmHg 90%
    22:00 -9°C° 0.5 mm 4 m/S 617 mmHg 89%
    23:00 -9°C° 0.1 mm 4 m/S 617 mmHg 88%

    26 März, Dienstag

    Zeit Temperatur Niederschläge Wind Luftdruck Luftfeuchtigkeit
    00:00 -9°C° 0.1 mm 3 m/S 617 mmHg 88%
    01:00 -9°C° 0.1 mm 3 m/S 618 mmHg 87%
    02:00 -9°C° 0.1 mm 3 m/S 618 mmHg 87%
    03:00 -9°C° 0.1 mm 3 m/S 618 mmHg 87%
    04:00 -10°C° 0.1 mm 3 m/S 618 mmHg 87%
    05:00 -9°C° 0.1 mm 3 m/S 619 mmHg 86%
    06:00 -9°C° 0.1 mm 3 m/S 619 mmHg 85%
    07:00 -9°C° 0.1 mm 3 m/S 620 mmHg 84%
    08:00 -8°C° 0.1 mm 3 m/S 620 mmHg 79%
    09:00 -7°C° 0.1 mm 3 m/S 621 mmHg 73%
    10:00 -6°C° 0.1 mm 3 m/S 621 mmHg 68%
    11:00 -6°C° 0 mm 3 m/S 621 mmHg 66%
    12:00 -5°C° 0 mm 3 m/S 621 mmHg 63%
    13:00 -4°C° 0 mm 3 m/S 621 mmHg 60%
    14:00 -4°C° 0 mm 3 m/S 621 mmHg 61%
    15:00 -4°C° 0 mm 3 m/S 621 mmHg 62%
    16:00 -4°C° 0 mm 3 m/S 620 mmHg 63%
    17:00 -6°C° 0 mm 3 m/S 620 mmHg 71%
    18:00 -6°C° 0 mm 2 m/S 620 mmHg 80%
    19:00 -8°C° 0 mm 2 m/S 620 mmHg 88%
    20:00 -8°C° 0 mm 2 m/S 620 mmHg 88%
    21:00 -8°C° 0 mm 2 m/S 620 mmHg 88%
    22:00 -9°C° 0 mm 2 m/S 621 mmHg 89%
    23:00 -9°C° 0 mm 2 m/S 621 mmHg 86%

    27 März, Mittwoch

    Zeit Temperatur Niederschläge Wind Luftdruck Luftfeuchtigkeit
    00:00 -8°C° 0 mm 1 m/S 621 mmHg 84%
    01:00 -8°C° 0 mm 1 m/S 620 mmHg 81%
    02:00 -8°C° 0 mm 1 m/S 620 mmHg 77%
    03:00 -9°C° 0 mm 2 m/S 620 mmHg 74%
    04:00 -9°C° 0 mm 2 m/S 620 mmHg 70%
    05:00 -9°C° 0 mm 2 m/S 620 mmHg 67%
    06:00 -8°C° 0 mm 2 m/S 620 mmHg 64%
    07:00 -8°C° 0 mm 2 m/S 620 mmHg 61%
    08:00 -6°C° 0 mm 2 m/S 621 mmHg 55%
    09:00 -3°C° 0 mm 2 m/S 622 mmHg 50%
    10:00 -1°C° 0 mm 2 m/S 622 mmHg 45%
    11:00 -1°C° 0 mm 3 m/S 622 mmHg 47%
    12:00 0°C° 0 mm 3 m/S 622 mmHg 50%
    13:00 +1°C° 0 mm 3 m/S 622 mmHg 53%
    14:00 0°C° 0 mm 3 m/S 622 mmHg 56%
    15:00 0°C° 0 mm 3 m/S 622 mmHg 60%
    16:00 0°C° 0 mm 3 m/S 621 mmHg 63%
    17:00 -1°C° 0.1 mm 3 m/S 621 mmHg 72%
    18:00 -3°C° 0.1 mm 2 m/S 621 mmHg 82%
    19:00 -4°C° 0.1 mm 2 m/S 621 mmHg 91%
    20:00 -4°C° 0.1 mm 2 m/S 621 mmHg 92%
    21:00 -4°C° 0.1 mm 2 m/S 622 mmHg 92%
    22:00 -4°C° 0.1 mm 2 m/S 622 mmHg 93%
    23:00 -3°C° 0 mm 1 m/S 622 mmHg 93%

    28 März, Donnerstag

    Zeit Temperatur Niederschläge Wind Luftdruck Luftfeuchtigkeit
    00:00 -3°C° 0 mm 1 m/S 622 mmHg 93%
    01:00 -3°C° 0 mm 1 m/S 622 mmHg 92%
    02:00 -3°C° 0 mm 1 m/S 622 mmHg 91%
    03:00 -3°C° 0 mm 1 m/S 621 mmHg 90%
    04:00 -3°C° 0 mm 1 m/S 621 mmHg 89%
    05:00 -3°C° 0.1 mm 1 m/S 621 mmHg 88%
    06:00 -3°C° 0.1 mm 1 m/S 622 mmHg 87%
    07:00 -2°C° 0.1 mm 1 m/S 622 mmHg 85%
    08:00 -1°C° 0 mm 1 m/S 622 mmHg 80%
    09:00 -2°C° 0 mm 2 m/S 623 mmHg 75%
    10:00 +1°C° 0 mm 2 m/S 623 mmHg 70%
    11:00 +2°C° 0 mm 2 m/S 623 mmHg 67%
    12:00 +2°C° 0 mm 2 m/S 623 mmHg 65%
    13:00 +3°C° 0 mm 2 m/S 623 mmHg 62%
    14:00 +3°C° 0 mm 2 m/S 623 mmHg 64%
    15:00 +3°C° 0 mm 2 m/S 623 mmHg 65%
    16:00 +3°C° 0 mm 2 m/S 623 mmHg 67%
    17:00 +1°C° 0 mm 2 m/S 622 mmHg 75%
    18:00 0°C° 0 mm 1 m/S 622 mmHg 84%
    19:00 -1°C° 0 mm 1 m/S 621 mmHg 93%
    20:00 -2°C° 0 mm 1 m/S 622 mmHg 92%
    21:00 -2°C° 0 mm 1 m/S 622 mmHg 92%
    22:00 -2°C° 0 mm 1 m/S 622 mmHg 92%
    23:00 -2°C° 0 mm 1 m/S 622 mmHg 90%
    Mehr zeigen